IU8UOQ-5 Weather Reports


time (UTC)temp
C
wind
direction
speed
KPH
gust
KPH
rain 1hr
cm
rain 24hr
cm
rain mn
cm
humidity
%
barometer
mb
20260906081653 28 0.0 0.0 0.00 0.00 0.00 66 1011.8
20260906075652 28 0.0 0.0 0.00 0.00 0.00 71 1011.8
20260906073651 28 0.0 0.0 0.00 0.00 0.00 68 1011.8
20260906071650 28 0.0 0.0 0.00 0.00 0.00 71 1011.6
20260906065649 28 0.0 0.0 0.00 0.00 0.00 70 1011.5
20260906063647 27 0.0 0.0 0.00 0.00 0.00 73 1011.3
20260906061646 27 0.0 0.0 0.00 0.00 0.00 74 1011.2
20260906055645 27 0.0 0.0 0.00 0.00 0.00 75 1011.2
20260906053644 27 0.0 0.0 0.00 0.00 0.00 75 1011.0
20260906051642 27 0.0 0.0 0.00 0.00 0.00 75 1010.9
20260906045641 27 0.0 0.0 0.00 0.00 0.00 77 1010.7
20260906043640 27 0.0 0.0 0.00 0.00 0.00 76 1010.8
20260906041638 27 0.0 0.0 0.00 0.00 0.00 77 1010.7
20260906035637 27 0.0 0.0 0.00 0.00 0.00 79 1010.5
20260906033636 27 0.0 0.0 0.00 0.00 0.00 77 1010.4
20260906031635 27 0.0 0.0 0.00 0.00 0.00 72 1010.3
20260906025633 27 0.0 0.0 0.00 0.00 0.00 76 1010.3
20260906023632 27 0.0 0.0 0.00 0.00 0.00 75 1010.5
20260906021631 27 0.0 0.0 0.00 0.00 0.00 76 1010.5
20260906015630 27 0.0 0.0 0.00 0.00 0.00 74 1010.5
20260906013628 27 0.0 0.0 0.00 0.00 0.00 74 1010.5
20260906011627 27 0.0 0.0 0.00 0.00 0.00 74 1010.5
20260906005626 27 0.0 0.0 0.00 0.00 0.00 77 1010.5
20260906003625 27 0.0 0.0 0.00 0.00 0.00 76 1010.4
20260906001623 27 0.0 0.0 0.00 0.00 0.00 73 1010.6
20260905235622 27 0.0 0.0 0.00 0.00 0.00 72 1010.7
20260905233621 27 0.0 0.0 0.00 0.00 0.00 73 1010.8
20260905231620 27 0.0 0.0 0.00 0.00 0.00 71 1011.0
20260905225618 28 0.0 0.0 0.00 0.00 0.00 69 1011.0
20260905223617 27 0.0 0.0 0.00 0.00 0.00 68 1011.1
20260905221616 28 0.0 0.0 0.00 0.00 0.00 67 1011.1
20260905215614 28 0.0 0.0 0.00 0.00 0.00 65 1011.1
20260905213613 28 0.0 0.0 0.00 0.00 0.00 64 1011.2
20260905211612 28 0.0 0.0 0.00 0.00 0.00 63 1011.2
20260905205611 28 0.0 0.0 0.00 0.00 0.00 59 1011.2
20260905203609 28 0.0 0.0 0.00 0.00 0.00 62 1011.2
20260905201608 28 0.0 0.0 0.00 0.00 0.00 64 1011.4
20260905195607 28 0.0 0.0 0.00 0.00 0.00 63 1011.2
20260905193606 28 0.0 0.0 0.00 0.00 0.00 64 1011.1
20260905191604 28 0.0 0.0 0.00 0.00 0.00 58 1011.1
20260905185603 28 0.0 0.0 0.00 0.00 0.00 57 1010.9
20260905183602 28 0.0 0.0 0.00 0.00 0.00 61 1010.7
20260905181600 28 0.0 0.0 0.00 0.00 0.00 61 1010.5
20260905175559 28 0.0 0.0 0.00 0.00 0.00 64 1010.4
20260905173558 29 0.0 0.0 0.00 0.00 0.00 63 1010.4
20260905171557 29 0.0 0.0 0.00 0.00 0.00 61 1010.3
20260905165555 30 0.0 0.0 0.00 0.00 0.00 56 1010.1
20260905163554 31 0.0 0.0 0.00 0.00 0.00 49 1010.1
20260905161553 31 0.0 0.0 0.00 0.00 0.00 41 1010.2
20260905155552 32 0.0 0.0 0.00 0.00 0.00 40 1010.1
20260905153550 32 0.0 0.0 0.00 0.00 0.00 38 1010.1
20260905151549 32 0.0 0.0 0.00 0.00 0.00 32 1010.1
20260905145548 33 0.0 0.0 0.00 0.00 0.00 29 1010.0
20260905143547 33 0.0 0.0 0.00 0.00 0.00 29 1010.0
20260905141545 33 0.0 0.0 0.00 0.00 0.00 33 1010.1
20260905135544 33 0.0 0.0 0.00 0.00 0.00 34 1010.3
20260905133543 33 0.0 0.0 0.00 0.00 0.00 30 1010.3
20260905131542 33 0.0 0.0 0.00 0.00 0.00 30 1010.5
20260905125540 33 0.0 0.0 0.00 0.00 0.00 34 1010.8
20260905123539 32 0.0 0.0 0.00 0.00 0.00 34 1010.8
20260905122000 32 0.0 0.0 0.00 0.00 0.00 35 1011.0
20260905115959 32 0.0 0.0 0.00 0.00 0.00 35 1011.0
20260905113958 32 0.0 0.0 0.00 0.00 0.00 34 1011.0
20260905111956 32 0.0 0.0 0.00 0.00 0.00 36 1011.1
20260905105955 31 0.0 0.0 0.00 0.00 0.00 39 1011.1
20260905103954 31 0.0 0.0 0.00 0.00 0.00 36 1011.0
20260905101952 31 0.0 0.0 0.00 0.00 0.00 37 1011.0
20260905095951 31 0.0 0.0 0.00 0.00 0.00 38 1011.0
20260905093950 31 0.0 0.0 0.00 0.00 0.00 39 1011.1
20260905091949 30 0.0 0.0 0.00 0.00 0.00 38 1011.1
20260905085947 30 0.0 0.0 0.00 0.00 0.00 42 1011.3
20260905083946 29 0.0 0.0 0.00 0.00 0.00 54 1011.2